Date,TemperatureHighF,TemperatureAvgF,TemperatureLowF,DewpointHighF,DewpointAvgF,DewpointLowF,HumidityHigh,HumidityAvg,HumidityLow,PressureMaxIn,PressureMinIn,WindSpeedMaxMPH,WindSpeedAvgMPH,GustSpeedMaxMPH,PrecipitationSumIn
2013-1-1,26,22,17,20,16,11,89,80,72,30.66,30.50,13,1,13,0.00
2013-1-2,26,24,22,20,18,15,92,80,68,30.65,30.52,10,1,10,0.00
2013-1-3,26,23,21,19,15,12,87,73,61,30.52,30.35,13,2,13,0.00
2013-1-4,30,21,16,20,10,-100,90,77,64,30.45,30.36,8,-34,8,0.00
2013-1-5,28,26,24,25,22,18,93,86,77,30.43,30.17,6,0,6,0.00
2013-1-6,31,28,25,26,24,23,94,87,74,30.20,30.05,6,0,6,0.00
2013-1-7,47,32,24,37,27,22,93,83,58,30.05,29.80,30,2,30,0.36
2013-1-8,41,32,29,32,30,26,97,90,60,30.08,29.73,9,0,9,0.07
2013-1-9,47,34,28,36,27,20,93,79,46,29.77,29.52,25,3,25,0.24
2013-1-10,38,27,20,25,20,13,89,73,51,30.01,29.75,10,1,14,0.02
2013-1-11,30,20,14,16,11,6,80,69,48,30.29,30.01,15,4,15,0.01
2013-1-12,24,14,10,12,6,3,82,71,54,30.42,30.28,15,4,15,0.00
2013-1-13,24,15,10,12,7,3,82,70,54,30.51,30.39,13,2,13,0.00
2013-1-14,28,21,17,17,14,11,84,74,58,30.50,30.33,9,1,9,0.00
2013-1-15,26,19,14,18,13,8,85,78,63,30.65,30.49,10,2,10,0.00
2013-1-16,28,23,18,21,18,14,88,79,72,30.67,30.57,14,2,14,0.00
2013-1-17,29,25,22,21,18,16,80,76,69,30.60,30.38,13,2,13,0.00
2013-1-18,27,24,22,20,18,16,85,79,71,30.39,30.28,16,2,16,0.00
2013-1-19,30,23,16,21,18,13,90,81,65,30.57,30.39,13,2,13,0.00
2013-1-20,26,19,11,22,16,8,91,86,77,30.58,30.46,8,1,11,0.00
2013-1-21,23,18,15,18,14,10,89,84,77,30.47,30.36,14,2,14,0.00
2013-1-22,25,19,15,16,13,10,87,80,67,30.39,30.21,13,2,13,0.00
2013-1-23,29,24,19,25,20,16,91,85,74,30.21,29.96,6,0,6,0.00
2013-1-24,29,26,21,23,21,19,90,84,72,30.28,30.07,8,0,8,0.00
2013-1-25,35,26,19,25,16,-100,91,77,61,30.16,29.96,11,-13,11,0.02
2013-1-26,34,29,24,27,24,20,89,81,69,29.97,29.90,10,2,10,0.00
2013-1-27,31,29,27,26,24,22,89,82,74,30.01,29.94,7,0,7,0.00
2013-1-28,31,28,25,26,23,20,90,83,70,29.97,29.86,9,1,9,0.00
2013-1-29,48,31,21,32,25,19,93,80,50,30.18,29.88,17,1,20,0.00
2013-1-30,55,42,33,34,30,24,87,65,38,30.20,30.06,35,2,35,0.00
2013-1-31,45,33,28,34,28,-100,96,84,64,30.24,30.15,8,-10,8,0.00
2013-2-1,40,30,23,30,27,21,97,88,67,30.45,30.20,9,0,9,0.00
2013-2-2,31,24,20,29,23,18,96,93,90,30.50,30.27,7,0,7,0.00
2013-2-3,32,27,22,29,25,19,96,92,86,30.27,30.11,7,0,7,0.00
2013-2-4,37,31,26,32,27,-100,96,91,78,30.12,29.93,8,-7,8,0.00
2013-2-5,38,33,29,34,31,28,97,92,82,29.93,29.77,9,0,9,0.01
2013-2-6,40,33,25,35,30,24,97,91,76,30.00,29.86,7,0,7,0.01
2013-2-7,49,36,31,36,30,19,98,79,31,30.04,29.84,13,2,14,0.02
2013-2-8,45,32,25,28,22,17,85,70,40,30.18,30.05,11,2,11,0.00
2013-2-9,43,32,26,30,25,21,88,75,51,30.20,30.03,10,1,10,0.00
2013-2-10,49,34,25,31,26,21,86,74,43,30.27,30.14,13,2,13,0.00
2013-2-11,38,30,22,29,24,-100,93,83,67,30.22,30.15,8,-3,8,0.00
2013-2-12,40,34,28,32,30,26,94,84,70,30.27,30.07,11,1,11,0.00
2013-2-13,52,45,33,35,27,21,84,51,31,30.32,30.05,26,4,26,0.00
2013-2-14,49,37,30,31,27,24,91,69,40,30.50,30.33,13,1,13,0.00
2013-2-15,48,35,26,34,28,25,93,78,45,30.53,30.24,10,1,10,0.00
2013-2-16,51,37,27,35,28,22,94,73,32,30.24,29.91,25,2,25,0.00
2013-2-17,50,38,28,29,25,17,88,62,27,30.06,29.98,17,2,17,0.00
2013-2-18,40,33,28,30,25,22,89,75,59,30.05,29.77,9,1,9,0.00
2013-2-19,45,34,26,28,23,20,87,65,38,29.91,29.73,11,2,11,0.00
2013-2-20,46,30,24,29,12,-100,85,61,35,29.99,29.88,10,-64,10,0.00
2013-2-21,46,32,24,30,22,-100,87,72,47,29.98,29.89,20,-3,20,0.00
2013-2-22,46,36,30,36,25,-100,96,76,56,29.90,29.53,24,-13,24,0.03
2013-2-23,47,36,27,34,27,24,96,73,42,30.22,29.70,25,2,25,0.14
2013-2-24,46,36,29,31,28,24,86,72,46,30.23,29.95,11,0,11,0.00
2013-2-25,48,36,29,34,18,-100,95,62,35,30.10,29.81,28,-38,28,0.01
2013-2-26,50,38,33,29,15,-100,76,49,26,30.23,30.11,14,-48,14,0.00
2013-2-27,51,39,28,32,27,22,85,65,34,30.24,30.13,9,1,9,0.00
2013-2-28,41,38,35,38,34,29,98,88,70,30.28,30.17,7,0,7,0.19
2013-3-1,64,44,34,47,37,34,99,80,34,30.28,30.15,16,1,16,0.00
2013-3-2,57,44,36,41,35,19,92,74,43,30.17,29.83,24,1,24,0.02
2013-3-3,49,40,31,26,18,-100,67,43,23,30.19,29.97,29,-6,29,0.00
2013-3-4,47,29,28,28,-8,-100,71,39,32,30.27,30.01,14,-188,14,0.00
2013-3-5,44,16,31,33,-52,-100,94,26,36,30.01,29.80,9,-497,9,0.01
2013-3-6,38,35,32,36,32,-100,98,94,90,29.81,29.61,4,-10,4,0.28
2013-3-7,50,39,32,39,35,31,98,87,56,30.04,29.77,10,1,10,0.01
2013-3-8,53,38,30,36,27,-100,93,73,45,30.14,29.95,11,-32,11,0.00
2013-3-9,58,38,29,33,18,-100,84,57,26,30.32,30.14,10,-25,10,0.00
2013-3-10,58,41,38,32,10,-100,68,42,31,30.32,30.15,29,-105,29,0.00
2013-3-11,54,45,34,34,25,18,69,46,26,30.32,30.13,23,3,24,0.00
2013-3-12,60,48,37,39,32,-100,88,61,41,30.13,29.91,17,-19,17,0.00
2013-3-13,63,50,38,44,38,35,90,66,39,30.04,29.95,16,1,16,0.00
2013-3-14,63,49,40,45,38,24,90,68,24,30.02,29.86,22,2,22,0.00
2013-3-15,60,49,38,41,35,29,86,60,30,30.08,29.97,23,2,23,0.00
2013-3-16,56,45,37,38,32,24,86,63,33,29.98,29.67,35,3,35,0.00
2013-3-17,46,40,30,29,23,15,81,53,30,30.00,29.73,34,5,34,0.00
2013-3-18,48,38,28,33,20,-100,82,54,27,30.15,29.95,35,-10,35,0.00
2013-3-19,48,37,28,35,21,12,96,56,27,30.23,29.77,17,2,17,0.15
2013-3-20,50,39,32,39,32,18,98,79,38,29.77,29.45,29,2,29,0.50
2013-3-21,47,39,31,28,22,14,78,50,27,30.03,29.77,32,4,32,0.00
2013-3-22,46,35,28,25,12,-100,77,49,27,30.27,30.03,22,-32,22,0.00
2013-3-23,49,36,26,27,19,14,77,54,26,30.35,30.19,10,2,10,0.00
2013-3-24,51,37,27,28,20,14,74,54,24,30.34,30.14,10,2,10,0.00
2013-3-25,55,39,28,30,22,14,77,54,21,30.17,29.95,9,2,10,0.00
2013-3-26,62,44,30,37,27,21,77,54,25,30.01,29.84,10,2,10,0.00
2013-3-27,60,48,39,39,33,27,81,58,30,29.94,29.87,11,-2,11,0.00
2013-3-28,64,48,37,43,35,31,84,63,33,30.02,29.92,10,3,10,0.00
2013-3-29,68,50,37,38,32,23,80,54,19,30.14,30.02,16,4,16,0.00
2013-3-30,70,51,37,43,34,27,77,54,25,30.25,30.02,11,2,11,0.00
2013-3-31,74,53,38,41,35,27,85,55,19,30.06,29.84,11,2,11,0.00
2013-4-1,78,57,40,42,36,31,78,51,20,29.93,29.79,18,3,18,0.00
2013-4-2,68,52,40,42,37,30,87,60,25,29.98,29.90,21,2,24,0.00
2013-4-3,71,55,38,39,34,26,84,50,21,30.03,29.88,14,2,14,0.00
2013-4-4,56,50,45,49,42,32,99,75,41,29.87,29.61,10,1,10,0.13
2013-4-5,62,51,41,46,41,37,98,71,40,29.73,29.67,22,3,22,0.02
2013-4-6,57,49,41,44,36,27,97,64,35,29.78,29.65,23,3,24,0.02
2013-4-7,52,43,34,40,33,27,97,71,39,29.72,29.48,24,2,24,0.46
2013-4-8,56,46,37,42,34,-100,91,68,42,30.15,29.71,11,-6,11,0.02
2013-4-9,61,48,36,40,35,30,87,63,35,30.26,30.06,15,2,15,0.00
2013-4-10,59,50,43,48,37,29,88,64,35,30.06,29.76,32,3,33,0.04
2013-4-11,57,47,37,36,28,20,85,52,24,30.08,30.02,25,4,25,0.00
2013-4-12,55,43,34,36,30,22,87,61,33,30.06,29.51,22,2,22,0.00
2013-4-13,51,43,33,31,25,17,88,51,31,29.81,29.48,31,5,33,0.00
2013-4-14,54,42,32,32,25,10,81,54,21,29.87,29.78,18,2,18,0.00
2013-4-15,51,40,33,37,32,28,93,75,41,30.12,29.57,14,2,22,0.13
2013-4-16,54,43,34,34,23,11,91,53,19,30.26,30.12,17,1,17,0.00
2013-4-17,59,47,31,33,26,18,77,46,21,30.39,30.25,28,4,28,0.00
2013-4-18,64,52,39,41,33,28,82,51,31,30.25,30.05,22,3,22,0.00
2013-4-19,62,52,41,41,37,33,91,60,36,30.05,29.86,29,4,29,0.00
2013-4-20,60,54,41,36,32,26,77,45,30,30.02,29.92,38,6,38,0.00
2013-4-21,58,48,36,37,31,23,93,56,28,30.26,29.97,25,5,25,0.01
2013-4-22,61,45,31,33,22,2,91,50,12,30.47,30.26,13,2,13,0.00
2013-4-23,65,47,34,35,25,14,69,47,14,30.31,30.13,13,2,13,0.00
2013-4-24,72,53,35,38,28,12,74,44,11,30.27,29.86,24,3,24,0.00
2013-4-25,73,61,44,42,33,22,67,37,23,29.96,29.83,26,5,26,0.00
2013-4-26,77,62,46,42,35,20,78,44,12,30.03,29.94,25,3,25,0.00
2013-4-27,68,53,41,40,35,22,82,55,19,30.01,29.92,32,3,35,0.00
2013-4-28,61,51,39,42,34,25,91,54,27,30.00,29.77,31,4,31,0.00
2013-4-29,51,47,37,41,25,13,87,44,24,29.97,29.69,37,6,37,0.02
2013-4-30,57,43,32,34,24,11,80,51,17,30.33,29.98,24,3,24,0.00
2013-5-1,66,48,31,38,24,14,73,45,15,30.49,30.33,10,2,10,0.00
2013-5-2,75,56,38,44,31,24,72,43,17,30.51,30.15,15,2,15,0.00
2013-5-3,54,52,49,45,37,32,70,58,49,30.18,30.15,8,2,8,0.00
2013-5-5,81,62,46,50,36,27,69,44,14,29.99,29.73,6,2,14,0.00
2013-5-6,87,65,47,51,37,26,65,41,11,29.83,29.59,7,2,14,0.00
2013-5-7,91,69,49,58,42,35,73,42,15,29.73,29.63,5,1,13,0.00
2013-5-8,91,70,52,56,46,40,75,48,17,29.87,29.73,4,1,14,0.00
2013-5-9,92,70,50,52,38,20,65,38,9,29.98,29.84,6,2,18,0.00
2013-5-10,92,70,50,50,38,31,60,34,13,30.04,29.91,7,2,21,0.00
2013-5-11,89,71,56,63,44,35,66,41,16,29.99,29.83,10,1,13,0.00
2013-5-12,76,67,59,52,46,40,74,50,29,29.91,29.83,24,4,24,0.00
2013-5-13,68,57,44,53,44,29,89,63,37,30.03,29.76,26,2,26,0.00
2013-5-14,66,54,42,38,32,17,81,47,16,30.08,29.94,18,2,18,0.00
2013-5-15,71,57,41,48,36,29,77,49,24,30.00,29.79,9,1,9,0.00
2013-5-16,74,60,51,50,45,37,90,61,29,29.86,29.72,16,2,16,0.00
2013-5-17,70,59,48,53,44,39,81,60,34,29.85,29.75,14,1,14,0.00
2013-5-18,69,58,46,46,38,30,83,52,26,30.08,29.85,24,2,24,0.00
2013-5-19,73,57,42,44,39,32,87,55,26,30.16,30.08,24,2,24,0.00
2013-5-20,50,46,44,41,39,37,81,75,68,30.18,30.16,11,3,11,0.00
2013-5-21,91,70,50,56,40,20,71,40,9,29.98,29.76,6,2,14,0.00
2013-5-22,92,69,50,52,37,30,63,37,11,30.04,29.84,5,2,18,0.00
2013-5-23,92,73,56,50,41,34,58,34,13,29.99,29.87,7,2,21,0.00
2013-5-24,89,61,44,63,45,37,89,60,16,29.91,29.83,7,1,13,0.00
2013-5-25,66,54,42,50,40,34,87,63,34,29.93,29.84,11,2,11,0.00
2013-5-26,68,56,45,50,44,40,86,67,40,29.89,29.80,10,1,10,0.00
2013-5-27,62,53,44,52,44,-100,97,75,49,29.83,29.68,13,2,13,0.03
2013-5-28,71,57,46,51,44,34,98,66,27,29.73,29.64,20,2,20,0.00
2013-5-29,64,53,42,53,44,34,92,71,39,29.81,29.58,18,1,18,0.08
2013-5-30,67,50,38,53,41,30,97,73,30,30.07,29.81,22,1,22,0.00
2013-5-31,74,57,39,49,38,29,92,57,20,30.16,30.07,10,0,10,0.00
2013-6-1,75,62,48,53,41,35,75,50,26,30.11,29.87,18,2,18,0.00
2013-6-2,73,61,47,48,41,34,85,52,26,29.91,29.80,20,3,20,0.00
2013-6-3,78,63,47,53,42,30,85,52,18,29.95,29.83,17,2,17,0.00
2013-6-4,83,65,48,56,45,34,82,54,20,30.04,29.86,10,1,10,0.00
2013-6-5,84,70,54,58,47,39,77,48,21,29.92,29.81,24,4,24,0.00
2013-6-6,90,72,54,51,43,28,75,40,13,29.90,29.73,29,2,29,0.00
2013-6-7,76,70,61,53,44,35,63,40,27,29.89,29.75,32,5,32,0.00
2013-6-8,81,67,50,50,39,-100,73,39,14,29.94,29.80,25,3,25,0.00
2013-6-9,74,65,54,45,36,25,66,36,16,29.87,29.76,25,4,25,0.00
2013-6-10,81,60,45,48,26,-100,72,39,15,29.82,29.60,25,-40,25,0.00
2013-6-11,69,57,47,48,39,32,82,55,26,29.92,29.66,23,2,25,0.00
2013-6-12,72,60,43,42,36,29,79,44,23,29.98,29.88,21,2,21,0.00
2013-6-13,72,58,44,49,38,30,82,51,23,30.00,29.91,23,3,23,0.00
2013-6-14,76,64,50,51,40,34,74,45,23,30.02,29.86,17,2,17,0.00
2013-6-15,83,65,47,61,44,36,78,52,20,29.95,29.79,10,1,10,0.00
2013-6-16,86,71,53,66,47,34,76,47,18,29.93,29.75,14,1,14,0.00
2013-6-17,82,70,57,58,50,35,87,54,19,29.87,29.68,16,1,16,0.01
2013-6-18,72,61,53,55,50,40,94,67,33,29.78,29.73,17,1,17,0.01
2013-6-19,67,59,53,53,46,39,94,65,39,29.80,29.68,26,3,26,0.03
2013-6-20,63,59,53,46,41,37,78,52,41,29.92,29.72,25,3,25,0.00
2013-6-21,68,60,51,55,47,39,82,65,36,30.00,29.92,8,0,8,0.00
2013-6-22,80,66,51,57,48,40,86,57,27,29.98,29.76,11,1,11,0.00
2013-6-23,76,66,55,61,51,42,88,61,31,29.78,29.50,10,1,10,0.00
2013-6-24,69,61,52,60,55,47,96,81,52,29.60,29.49,10,0,10,0.08
2013-6-25,71,60,50,56,50,46,88,70,46,29.73,29.60,7,1,10,0.00
2013-6-26,75,62,50,55,50,45,92,65,37,29.99,29.74,13,1,13,0.00
2013-6-27,78,64,55,61,54,47,89,70,44,30.11,29.98,8,0,8,0.01
2013-6-28,90,72,57,70,58,54,92,66,32,30.13,29.89,9,0,9,0.00
2013-6-29,84,68,62,68,54,-100,92,70,46,29.95,29.87,20,-33,20,0.02
2013-6-30,95,76,59,67,59,51,93,62,24,29.95,29.77,10,1,10,0.00
2013-7-1,99,78,63,71,59,47,80,56,18,29.91,29.72,17,2,17,0.00
2013-7-2,100,83,66,67,54,43,76,43,16,29.85,29.72,28,4,28,0.00
2013-7-3,91,78,61,57,46,20,74,36,10,29.87,29.73,22,2,22,0.00
2013-7-4,84,70,53,51,43,31,80,42,17,29.78,29.69,28,2,28,0.00
2013-7-5,82,66,49,54,46,38,86,54,24,29.76,29.66,22,2,22,0.00
2013-7-6,88,70,53,58,48,36,79,51,16,29.81,29.63,10,1,10,0.00
2013-7-7,89,72,58,62,50,40,93,51,18,29.79,29.62,17,2,17,0.03
2013-7-8,88,72,56,59,51,38,87,54,19,29.91,29.73,13,1,13,0.00
2013-7-9,93,75,58,64,53,40,77,51,18,29.99,29.77,10,1,10,0.00
2013-7-10,87,75,60,62,47,34,77,42,16,29.82,29.66,25,4,25,0.00
2013-7-11,78,69,60,52,40,28,71,37,19,29.79,29.69,26,3,26,0.00
2013-7-12,75,66,53,51,37,26,67,37,18,29.90,29.76,20,2,20,0.00
2013-7-13,85,66,48,52,41,26,76,47,13,30.01,29.89,11,1,11,0.00
2013-7-14,88,71,50,51,38,23,71,36,10,29.99,29.75,24,3,24,0.00
2013-7-15,85,70,55,50,35,-100,64,34,15,29.91,29.79,22,-9,22,0.00
2013-7-16,89,71,54,64,46,-100,68,45,13,29.92,29.69,11,2,11,0.00
2013-7-17,91,76,62,64,52,36,85,49,17,29.93,29.71,18,2,18,0.03
2013-7-18,95,76,58,64,48,37,64,40,15,30.02,29.83,17,2,17,0.00
2013-7-19,97,78,57,54,42,9,69,35,6,29.95,29.74,29,3,29,0.00
2013-7-20,94,74,56,54,37,-100,75,32,9,29.82,29.64,30,-30,30,0.00
2013-7-21,95,75,55,56,46,34,71,41,13,29.70,29.58,32,2,32,0.00
2013-7-22,94,77,54,58,48,38,79,42,15,29.76,29.64,23,2,23,0.00
2013-7-23,100,78,58,58,48,34,72,40,11,29.87,29.68,15,1,15,0.00
2013-7-24,99,78,59,57,46,20,77,39,7,29.84,29.70,15,2,15,0.00
2013-7-25,97,78,57,55,42,14,71,35,5,29.87,29.77,22,3,22,0.00
2013-7-26,95,77,56,51,38,24,68,28,9,29.92,29.80,24,4,24,0.00
2013-7-27,88,77,60,52,39,28,70,29,13,29.87,29.70,20,3,20,0.00
2013-7-28,88,70,54,52,42,-100,78,43,14,29.77,29.64,20,1,20,0.00
2013-7-29,89,66,57,64,35,-100,71,44,16,29.80,29.69,11,-65,11,0.00
2013-7-30,91,69,60,59,39,-100,71,43,13,29.94,29.81,10,-51,10,0.00
2013-7-31,94,65,60,48,43,-100,64,47,16,30.00,29.75,11,-8,29,0.00
2013-8-6,94,77,60,57,47,27,70,42,9,29.83,29.68,7,2,23,0.00
2013-8-7,94,76,59,57,46,39,67,39,17,29.80,29.68,8,2,22,0.00
2013-8-8,91,75,61,62,52,45,72,48,23,29.81,29.67,4,0,11,0.00
2013-8-9,95,77,63,66,55,47,70,50,20,29.77,29.59,4,1,16,0.00
2013-8-10,90,78,65,66,61,52,92,60,27,29.85,29.63,4,1,20,2.42
2013-8-11,86,72,60,66,60,53,94,68,32,29.89,29.71,7,1,31,2.15
2013-8-12,87,70,57,84,58,46,91,66,25,29.89,29.72,7,0,13,0.00
2013-8-13,91,49,62,61,-4,-100,81,28,17,29.92,29.74,8,-378,8,0.00
2013-8-14,86,36,64,68,-29,-100,72,22,34,29.86,29.66,10,-550,10,0.00
2013-8-15,84,34,68,66,-31,-100,78,22,35,29.82,29.72,18,-559,18,0.00
2013-8-16,88,33,64,57,-35,-100,69,18,25,29.90,29.74,10,-574,10,0.00
2013-8-17,83,33,72,60,-38,-100,63,15,27,29.88,29.79,21,-581,21,0.00
2013-8-18,86,33,69,57,-40,-100,55,13,22,29.96,29.80,22,-591,22,0.00
2013-8-19,81,32,74,58,-40,-100,57,13,26,29.92,29.83,26,-587,26,0.00
2013-8-20,86,33,70,51,-41,-100,47,11,15,29.96,29.80,15,-587,15,0.00
2013-8-21,-200,0,200,-100,-100,-100,0,0,100,29.94,29.90,0,-999,0,0.00
2013-8-22,84,60,50,100,52,45,57,47,30,29.88,29.64,0,0,8,0.00
2013-8-23,82,60,50,57,51,48,53,47,30,29.72,29.59,7,0,16,0.00
2013-8-24,83,44,50,52,-2,-100,63,28,25,29.74,29.60,18,-340,18,0.00
2013-8-25,80,28,67,60,-44,-100,61,15,29,29.81,29.65,11,-617,11,0.00
2013-8-26,77,24,63,58,-50,-100,80,18,38,29.84,29.70,7,-673,11,0.00
2013-8-27,84,41,64,62,-17,-100,78,25,29,29.87,29.65,8,-459,8,0.02
2013-8-28,86,72,57,65,56,48,87,62,30,29.77,29.69,10,0,10,0.01
2013-8-29,82,68,59,66,59,53,98,77,39,29.89,29.74,14,0,14,0.30
2013-8-30,80,67,54,59,50,41,97,61,27,30.04,29.89,15,1,15,0.00
2013-8-31,88,67,52,60,51,46,82,61,26,30.09,29.83,10,2,10,0.00
2013-9-1,94,71,56,62,53,47,79,57,22,29.89,29.64,10,2,10,0.00
2013-9-2,91,72,54,62,54,48,86,56,25,29.82,29.68,12,2,13,0.00
2013-9-3,88,72,60,63,57,50,83,62,30,29.91,29.77,15,2,15,0.00
2013-9-4,90,72,60,68,58,54,82,65,33,29.94,29.80,13,2,13,0.00
2013-9-5,86,73,63,65,60,54,94,67,35,29.93,29.72,41,2,41,0.81
2013-9-6,72,63,57,62,58,55,97,84,60,30.08,29.84,9,1,9,0.00
2013-9-7,65,60,55,61,57,54,95,91,81,30.08,30.01,7,1,7,0.13
2013-9-8,85,64,52,63,54,-100,96,75,38,30.07,29.87,15,-8,15,0.00
2013-9-9,90,69,55,61,55,50,89,64,28,29.96,29.81,11,2,11,0.00
2013-9-10,90,69,56,63,55,50,83,64,28,30.00,29.87,11,2,11,0.00
2013-9-11,92,71,57,63,55,50,81,62,25,30.04,29.90,12,2,12,0.00
2013-9-12,93,72,58,64,55,48,81,59,24,29.99,29.77,10,2,10,0.00
2013-9-13,95,73,60,65,57,52,79,61,25,29.81,29.63,11,2,11,0.00
2013-9-14,94,74,60,67,58,51,80,61,25,29.82,29.68,10,2,10,0.00
2013-9-15,90,74,61,64,56,49,91,58,26,29.74,29.52,26,3,26,0.32
2013-9-16,76,65,53,58,52,46,95,67,36,29.78,29.67,23,4,23,0.00
2013-9-17,72,61,52,54,48,43,92,65,45,29.79,29.65,24,3,24,0.00
2013-9-18,70,58,46,50,44,41,89,62,36,30.04,29.78,22,2,22,0.00
2013-9-19,74,56,44,51,42,38,83,63,30,30.10,29.89,10,2,11,0.00
2013-9-20,77,59,46,57,45,39,80,62,29,29.91,29.52,10,3,10,0.00
2013-9-21,73,61,50,53,45,36,91,60,28,29.62,29.54,21,3,21,0.00
2013-9-22,65,53,44,52,44,40,93,76,41,29.71,29.56,11,2,11,0.02
2013-9-23,63,52,42,54,44,40,95,76,51,29.91,29.71,15,2,15,0.03
2013-9-24,66,53,44,45,40,34,89,66,33,29.90,29.73,16,2,16,0.00
2013-9-25,68,54,42,48,41,34,88,65,29,29.93,29.78,9,2,9,0.00
2013-9-26,67,53,44,49,42,35,89,68,33,30.05,29.93,7,2,10,0.00
2013-9-27,59,50,40,49,43,36,92,77,51,30.05,29.86,9,1,9,0.00
2013-9-28,57,51,45,54,48,43,95,89,80,29.86,29.34,14,1,14,0.19
2013-9-29,62,51,40,52,44,39,97,79,46,29.56,29.28,15,2,15,0.13
2013-9-30,60,48,38,47,41,36,94,79,49,29.89,29.32,21,2,21,0.10
2013-10-1,60,45,34,43,37,33,96,77,41,30.12,29.89,17,2,18,0.00
2013-10-2,52,45,37,46,40,35,96,83,66,30.14,30.07,11,1,11,0.04
2013-10-3,64,46,36,44,39,34,96,80,34,30.45,30.14,8,2,8,0.00
2013-10-4,64,47,36,47,39,33,90,75,40,30.54,30.37,11,2,11,0.00
2013-10-5,64,50,39,49,41,36,91,75,46,30.41,30.25,9,2,9,0.00
2013-10-6,69,50,40,48,42,38,91,77,39,30.26,29.89,10,2,10,0.00
2013-10-7,64,51,40,48,40,36,94,69,40,29.89,29.81,27,4,27,0.00
2013-10-8,59,46,40,43,39,35,92,79,43,30.06,29.86,17,2,17,0.07
2013-10-9,61,47,35,47,38,32,92,74,39,30.16,29.86,13,3,14,0.00
2013-10-10,64,52,41,42,37,33,80,60,34,30.03,29.83,20,2,20,0.00
2013-10-11,58,46,36,46,36,31,86,70,41,30.15,30.03,13,2,13,0.00
2013-10-12,58,47,42,42,39,36,89,74,47,30.20,30.04,9,2,9,0.00
2013-10-13,63,46,36,43,38,34,92,76,39,30.36,30.20,9,2,9,0.00
2013-10-14,63,45,36,41,35,32,86,70,33,30.46,30.36,11,3,11,0.00
2013-10-15,60,46,35,47,37,31,87,73,46,30.46,30.17,11,2,11,0.00
2013-10-16,66,50,42,45,40,37,88,71,40,30.22,30.10,10,2,10,0.00
2013-10-17,64,47,38,44,39,34,90,75,39,30.30,30.21,10,3,10,0.00
2013-10-18,63,46,35,44,39,32,92,77,46,30.32,30.16,10,2,11,0.00
2013-10-19,65,48,37,46,39,34,91,75,42,30.19,30.08,10,2,10,0.00
2013-10-20,68,50,39,47,41,35,88,73,41,30.18,30.06,11,2,11,0.00
2013-10-21,70,52,42,48,42,37,86,71,41,30.21,30.09,11,2,11,0.00
2013-10-22,70,51,40,49,43,37,91,76,44,30.22,30.07,10,2,11,0.00
2013-10-23,68,49,39,48,42,36,93,79,47,30.18,30.07,10,2,10,0.00
2013-10-24,63,46,37,46,40,35,92,82,51,30.17,30.05,9,3,9,0.00
2013-10-25,61,46,38,45,40,35,91,81,54,30.28,30.14,9,2,11,0.00
2013-10-26,62,46,36,46,40,34,93,82,55,30.35,30.07,6,2,11,0.00
2013-10-27,53,46,36,47,42,35,97,89,80,30.07,29.81,7,1,8,0.00
2013-10-28,57,46,34,47,32,23,89,63,28,30.03,29.88,5,1,19,0.00
2013-10-29,36,33,31,31,25,24,82,72,63,30.05,29.98,10,5,11,0.00
2013-10-30,52,38,28,34,30,25,87,73,45,30.11,30.03,9,1,9,0.00
2013-10-31,64,46,31,42,36,29,95,70,39,30.18,30.01,22,2,23,0.00
2013-11-1,57,47,38,41,36,31,84,67,52,30.24,29.92,16,2,16,0.00
2013-11-2,54,45,40,48,40,34,96,83,63,29.92,29.48,20,2,20,0.16
2013-11-3,50,39,31,37,30,25,94,73,39,30.07,29.78,19,2,19,0.01
2013-11-4,49,35,28,29,25,21,79,67,38,30.18,30.07,12,3,12,0.00
2013-11-5,41,38,34,36,33,26,94,83,67,30.25,30.13,9,1,9,0.00
2013-11-6,42,39,36,37,35,32,94,84,76,30.41,30.25,7,1,7,0.05
2013-11-7,41,38,35,38,36,33,96,93,86,30.29,29.79,5,1,5,0.09
2013-11-8,54,41,34,41,35,30,97,81,45,30.18,29.92,16,2,16,0.01
2013-11-9,42,36,30,38,33,28,95,87,73,30.26,30.18,9,2,9,0.18
2013-11-10,44,40,37,41,38,36,97,93,86,30.31,30.18,6,1,6,0.01
2013-11-11,48,44,40,43,41,39,97,90,80,30.40,30.28,6,0,6,0.00
2013-11-12,50,45,43,45,43,41,97,91,80,30.36,30.24,6,1,7,0.06
2013-11-13,57,45,41,45,40,36,92,82,53,30.38,30.24,7,1,18,0.00
2013-11-14,47,41,38,39,36,35,91,84,72,30.24,30.06,6,2,10,0.00
2013-11-15,50,45,32,36,31,28,90,60,43,29.95,29.31,22,3,32,0.00
2013-11-16,49,38,30,37,30,-100,94,74,45,29.64,29.23,22,-3,22,0.04
2013-11-17,44,36,28,38,32,26,93,84,75,29.88,29.67,8,3,15,0.00
2013-11-18,46,39,32,40,37,31,97,92,81,29.85,29.58,6,1,8,0.01
2013-11-19,53,42,32,41,31,21,98,69,39,29.94,29.52,31,4,31,0.01
2013-11-20,42,29,22,23,16,12,76,60,39,30.57,29.94,13,2,13,0.00
2013-11-21,34,23,17,20,16,12,83,73,45,30.80,30.57,9,2,9,0.00
2013-11-22,35,25,19,22,18,14,84,74,54,30.90,30.76,10,2,10,0.00
2013-11-23,35,25,18,24,19,15,88,79,61,30.76,30.44,9,2,9,0.00
2013-11-24,41,29,20,27,22,17,89,75,50,30.48,30.35,8,1,8,0.00
2013-11-25,41,31,23,30,26,20,90,81,62,30.53,30.46,10,1,10,0.00
2013-11-26,35,28,25,28,24,22,89,86,78,30.46,30.27,10,2,10,0.00
2013-11-27,40,30,23,31,26,21,95,86,66,30.29,30.19,8,1,8,0.00
2013-11-28,37,28,22,32,26,20,95,90,81,30.31,30.22,8,1,9,0.00
2013-11-29,34,30,27,31,28,25,94,91,86,30.35,30.29,9,2,9,0.00
2013-11-30,54,35,32,38,32,30,94,88,51,30.36,30.18,5,0,5,0.00
2013-12-1,40,35,32,38,34,31,97,95,90,30.18,29.63,13,2,13,0.29
2013-12-2,42,36,30,36,27,17,95,72,48,30.08,29.65,19,3,19,0.05
2013-12-3,33,25,19,20,17,13,84,74,55,30.41,30.08,10,2,10,0.00
2013-12-4,28,20,15,16,13,10,83,74,50,30.47,30.39,12,2,12,0.00
2013-12-5,22,19,14,11,8,6,73,63,50,30.41,30.35,9,2,9,0.00
2013-12-6,23,18,9,15,10,3,87,70,50,30.41,30.33,9,1,9,0.00
2013-12-7,19,8,3,6,1,-2,80,73,54,30.50,30.39,10,3,10,0.00
2013-12-8,22,12,5,9,5,-1,85,74,54,30.63,30.48,11,2,11,0.00
2013-12-9,22,13,6,13,8,2,87,79,63,30.61,30.48,10,2,10,0.00
2013-12-10,26,16,10,15,10,6,87,79,57,30.57,30.47,10,2,10,0.00
2013-12-11,29,22,17,19,16,13,86,78,63,30.56,30.42,10,2,10,0.00
2013-12-12,31,25,21,23,20,16,89,80,68,30.42,30.19,10,2,10,0.00
2013-12-13,32,24,19,26,21,16,93,87,76,30.50,30.23,8,1,8,0.01
2013-12-14,36,28,23,28,25,21,94,86,72,30.50,30.32,7,1,7,0.00
2013-12-15,55,34,27,37,29,24,92,84,48,30.37,30.21,26,4,26,0.00
2013-12-16,34,30,24,33,29,23,97,95,88,30.44,30.31,17,2,17,0.00
2013-12-17,34,30,24,32,28,23,97,94,90,30.38,30.00,15,2,15,0.00
2013-12-18,46,33,23,32,26,19,98,80,36,30.16,29.92,24,3,27,0.00
2013-12-19,33,24,18,21,15,11,89,69,44,30.36,30.14,13,2,13,0.00
2013-12-20,28,21,16,22,16,12,92,82,59,30.14,29.72,11,1,11,0.00
2013-12-21,30,23,20,24,19,16,93,84,77,30.22,29.91,11,2,11,0.01
2013-12-22,33,24,18,26,20,15,92,87,73,30.37,30.22,10,2,10,0.01
2013-12-23,45,32,21,35,28,20,95,85,59,30.43,30.07,21,2,21,0.09
2013-12-24,38,30,21,31,26,20,96,87,75,30.63,30.42,13,2,14,0.05
2013-12-25,34,28,19,28,25,17,95,88,79,30.65,30.49,8,1,8,0.01
2013-12-26,36,33,30,30,28,26,87,83,77,30.49,30.36,12,1,12,0.00
2013-12-27,35,31,25,30,28,24,96,87,81,30.36,30.11,12,2,12,0.00
2013-12-28,29,26,21,28,25,19,97,95,92,30.55,30.31,6,1,6,0.00
2013-12-29,30,28,26,28,26,25,97,94,90,30.53,30.31,9,1,9,0.00
2013-12-30,33,31,28,29,28,27,94,89,81,30.39,30.17,8,1,8,0.00
2013-12-31,39,30,24,32,28,22,96,92,78,30.41,30.14,10,1,11,0.00
2014-1-1,31,29,23,29,27,21,96,94,92,30.52,30.41,5,1,5,0.00
2014-1-2,35,31,26,32,29,25,96,93,87,30.41,29.84,5,1,5,0.09